[[[{"header":{"parameterUnit":"kt","parameterCategory":2,"dx":1,"dy":1,"la1":30.253999710083008,"la2":30.299108505249023,"lo1":-89.0895004272461,"lo2":-89.04439544677734,"nx":28,"ny":28,"refTime":"2022-09-17T21:00:00:Z","depth":0,"parameterNumber":1,"parameterNumberName":"U-component_of_WINDS"},"data":[-0.4283,-0.4277,-0.4216,-0.4184,-0.4123,-0.4091,-0.4061,-0.4015,-0.3964,-0.3922,-0.3887,-0.3827,-0.3754,-0.37,-0.3662,-0.3636,-0.3626,-0.367,-0.3633,-0.3488,-0.3465,-0.3442,-0.3439,-0.3668,-0.3668,-0.3793,-0.3794,-0.3795,-0.4188,-0.4127,-0.409,-0.4014,-0.3983,-0.3904,-0.3837,-0.3818,-0.3792,-0.3729,-0.369,-0.3648,-0.3609,-0.3518,-0.3471,-0.3471,-0.3432,-0.3463,-0.3463,-0.3454,-0.3296,-0.3293,-0.3495,-0.3495,-0.3495,-0.3495,-0.3495,-0.3495,-0.3998,-0.3997,-0.3913,-0.3872,-0.3817,-0.3766,-0.3756,-0.3679,-0.3644,-0.3583,-0.3516,-0.3487,-0.3413,-0.3325,-0.328,-0.3258,-0.3214,-0.3229,-0.3233,-0.3239,-0.3256,-0.3091,-0.3247,-0.3246,-0.3245,-0.3244,-0.3244,0,-0.3841,-0.3789,-0.3748,-0.369,-0.3657,-0.3606,-0.3549,-0.354,-0.3409,-0.3386,-0.3348,-0.3316,-0.3254,-0.3214,-0.3154,-0.3104,-0.3023,-0.3006,-0.3017,-0.3051,-0.309,-0.3073,-0.2823,-0.3002,-0.3,-0.2998,-0.2997,-0.2996,-0.3649,-0.3653,-0.3534,-0.3514,-0.3466,-0.3436,-0.3405,-0.3288,-0.3262,-0.3176,-0.3182,-0.3138,-0.3096,-0.3048,-0.2961,-0.2915,-0.2876,-0.2952,-0.2868,-0.2901,-0.2881,-0.2884,-0.2885,-0.2972,-0.2975,-0.2977,-0.2979,0,-0.3548,-0.3443,-0.3429,-0.3309,-0.3279,-0.3291,-0.319,-0.3185,-0.3109,-0.3092,-0.3081,-0.2965,-0.2931,-0.2829,-0.2769,-0.2718,-0.2744,-0.2704,-0.2769,-0.2757,-0.2818,-0.2815,-0.3024,-0.3047,-0.2804,-0.2807,-0.2809,0,-0.3345,-0.3355,-0.3198,-0.3195,-0.3203,-0.3083,-0.3095,-0.3031,-0.2961,-0.2946,-0.2833,-0.2822,-0.2692,-0.2668,-0.2592,-0.2593,-0.2581,-0.2543,-0.2524,-0.2555,-0.2561,-0.2543,-0.2534,-0.2473,-0.2472,-0.2471,-0.2471,0,-0.32,-0.3125,-0.3119,-0.3085,-0.2958,-0.2959,-0.2907,-0.2826,-0.2797,-0.2743,-0.2724,-0.2671,-0.2643,-0.2606,-0.2508,-0.2456,-0.2506,-0.2414,-0.2468,-0.2472,-0.2487,-0.2488,-0.2695,-0.2469,-0.2469,-0.2469,-0.2468,0,-0.302,-0.2964,-0.2969,-0.2861,-0.2846,-0.2842,-0.278,-0.2752,-0.2676,-0.2626,-0.2582,-0.2495,-0.2484,-0.2402,-0.2387,-0.2347,-0.2327,-0.2288,-0.229,-0.2286,-0.2196,-0.2332,-0.2536,-0.2556,-0.228,-0.2278,-0.2276,0,-0.2886,-0.2861,-0.2756,-0.2764,-0.2738,-0.2612,-0.2606,-0.254,-0.2472,-0.2443,-0.2368,-0.2337,-0.2252,-0.2228,-0.2233,-0.2157,-0.2209,-0.2147,-0.2114,-0.2114,-0.2142,-0.2327,-0.2385,-0.2502,-0.2255,-0.2257,-0.2259,0,-0.2768,-0.2608,-0.2616,-0.2573,-0.2462,-0.244,-0.2432,-0.2371,-0.2358,-0.2295,-0.2288,-0.2238,-0.2174,-0.2134,-0.2057,-0.2069,-0.2171,-0.1998,-0.1994,-0.2036,-0.2233,-0.2289,-0.2309,-0.2117,-0.212,-0.2121,-0.2241,0,-0.2527,-0.2499,-0.2515,-0.2421,-0.2386,-0.2383,-0.2268,-0.2247,-0.2175,-0.2103,-0.2089,-0.2006,-0.1947,-0.194,-0.1869,-0.1927,-0.1902,-0.1833,-0.1746,-0.1868,-0.1905,-0.192,-0.1701,-0.1697,-0.1695,-0.1692,0,0,-0.2427,-0.2383,-0.2265,-0.225,-0.2214,-0.208,-0.2088,-0.2038,-0.1939,-0.1918,-0.1868,-0.1787,-0.1723,-0.1718,-0.1747,-0.1722,-0.1723,-0.1684,-0.181,-0.1824,-0.1836,-0.1877,-0.1894,-0.1688,-0.1686,-0.1686,-0.1685,0,-0.2315,-0.2245,-0.2251,-0.2192,-0.21,-0.2021,-0.2023,-0.1909,-0.1863,-0.1845,-0.1738,-0.1716,-0.1652,-0.16,-0.1565,-0.1681,-0.1603,-0.1671,-0.1772,-0.1786,-0.1804,-0.1818,-0.1863,-0.1881,-0.1678,-0.1678,-0.1679,0,-0.2181,-0.2094,-0.2084,-0.199,-0.1928,-0.1904,-0.1784,-0.1762,-0.1744,-0.1601,-0.1586,-0.1525,-0.1444,-0.1452,-0.1451,-0.1406,-0.1501,-0.1449,-0.1463,-0.1461,-0.1469,-0.149,-0.1509,-0.1266,-0.1265,-0.1264,0,0,-0.21,-0.2071,-0.1941,-0.1957,-0.1925,-0.1807,-0.1781,-0.1706,-0.1632,-0.1604,-0.1523,-0.1457,-0.1419,-0.1397,-0.1355,-0.138,-0.1356,-0.1403,-0.1422,-0.1438,-0.1446,-0.1459,-0.1479,-0.126,-0.126,-0.126,0,0,-0.2062,-0.1911,-0.1849,-0.1852,-0.1785,-0.1659,-0.1675,-0.1597,-0.1547,-0.1535,-0.1408,-0.1385,-0.139,-0.1334,-0.1298,-0.1324,-0.124,-0.1246,-0.136,-0.1383,-0.1401,-0.1416,-0.1166,0,0,0,0,0,-0.1887,-0.1929,-0.1875,-0.1857,-0.1738,-0.1689,-0.1673,-0.1568,-0.1511,-0.1526,-0.1447,-0.1362,-0.1289,-0.1254,-0.1241,-0.1283,-0.1213,-0.1221,-0.1229,-0.1381,-0.1406,-0.1428,0,0,0,0,0,0,-0.1879,-0.1859,-0.1873,-0.1751,-0.1723,-0.1686,-0.1567,-0.154,-0.1507,-0.1491,-0.138,-0.1359,-0.127,-0.1254,-0.1244,-0.1286,-0.1169,-0.1216,-0.1223,-0.123,-0.139,-0.141,-0.1428,0,0,0,0,0,-0.1873,-0.1856,-0.1691,-0.175,-0.1725,-0.1595,-0.1565,-0.1541,-0.1514,-0.1389,-0.1365,-0.1437,-0.1274,-0.1258,-0.1247,-0.1293,-0.1175,-0.1172,-0.1221,-0.1226,-0.1231,-0.14,0,0,0,0,0,0,-0.1868,-0.1835,-0.1683,-0.1672,-0.1725,-0.1595,-0.1571,-0.1542,-0.1412,-0.1389,-0.1439,-0.1428,-0.1277,-0.1264,-0.1253,-0.1302,-0.1181,-0.1177,-0.1175,-0.1225,-0.1229,-0.1233,0,0,0,0,0,0,-0.1843,-0.1826,-0.1678,-0.1652,-0.1637,-0.1596,-0.1574,-0.1549,-0.1412,-0.1469,-0.1455,-0.1436,-0.1296,-0.1269,-0.126,-0.1225,-0.1185,-0.1181,-0.1179,-0.1177,-0.1229,-0.1232,0,0,0,0,0,0,-0.1834,-0.1819,-0.1654,-0.1643,-0.1629,-0.1496,-0.1572,-0.1456,-0.1388,-0.1477,-0.1379,-0.1375,-0.1303,-0.1291,-0.1265,-0.1235,-0.1228,-0.1184,-0.1182,-0.1181,-0.1179,0,0,0,0,0,0,0,-0.1827,-0.1948,-0.175,-0.1635,-0.1623,-0.1569,-0.1566,-0.1563,-0.1387,-0.1383,-0.138,-0.1377,-0.1204,-0.12,-0.1196,-0.1243,0,0,-0.1185,-0.1183,0,0,0,0,0,0,0,0,-0.1951,-0.1948,-0.1749,-0.1747,-0.1745,-0.1568,-0.1566,-0.1563,-0.1386,-0.1384,-0.1381,-0.1378,-0.1203,-0.12,-0.1197,0,0,0,0,0,0,0,0,0,0,0,0,0,0,0,-0.1749,-0.1747,0,-0.1568,-0.1566,-0.1564,-0.1386,-0.1384,-0.1381,-0.1379,-0.1202,-0.1199,-0.1197,0,0,0,0,0,0,0,0,0,0,0,0,0,0,0,0,0,0,0,0,0,0,0,0,0,0,0,0,0,0,0,0,0,0,0,0,0,0,0,0,0,0,0,0,0,0,0,0,0,0,0,0,0,0,0,0,0,0,0,0,0,0,0,0,0,0,0,0,0]}],[{"header":{"parameterUnit":"kt","parameterCategory":2,"dx":1,"dy":1,"la1":30.253999710083008,"la2":30.299108505249023,"lo1":-89.0895004272461,"lo2":-89.04439544677734,"nx":28,"ny":28,"refTime":"2022-09-17T21:00:00:Z","depth":0,"parameterNumber":2,"parameterNumberName":"V-component_of_WINDS"},"data":[3.9119,3.9086,3.9075,3.9031,3.9013,3.8979,3.8963,3.8941,3.8919,3.8875,3.8847,3.8829,3.8799,3.876,3.8726,3.8718,3.8703,3.8703,3.8692,3.8713,3.8714,3.8716,3.8724,3.87,3.87,3.8672,3.8672,3.8672,3.914,3.9123,3.9096,3.9062,3.9039,3.9034,3.9004,3.8984,3.8953,3.8925,3.8896,3.8855,3.8819,3.8788,3.875,3.8731,3.8724,3.8722,3.8721,3.8716,3.8738,3.8747,3.8728,3.8728,3.8728,3.8728,3.8728,3.8728,3.9175,3.9155,3.9128,3.9098,3.9077,3.9053,3.903,3.9009,3.898,3.8942,3.893,3.8892,3.8859,3.8804,3.8781,3.8749,3.8748,3.8739,3.8737,3.8734,3.8735,3.8778,3.8742,3.8742,3.8742,3.8742,3.8742,0,3.9195,3.9187,3.916,3.9129,3.9106,3.908,3.9053,3.9038,3.901,3.8987,3.8951,3.8927,3.8879,3.884,3.88,3.8776,3.8762,3.8759,3.8753,3.8758,3.877,3.8762,3.8798,3.8759,3.8759,3.8759,3.8759,3.8759,3.9228,3.9206,3.917,3.9152,3.9134,3.9105,3.9084,3.9061,3.9039,3.9,3.8981,3.8944,3.8912,3.8853,3.8821,3.8783,3.8775,3.8762,3.8769,3.8777,3.8773,3.8774,3.8772,3.876,3.876,3.876,3.876,0,3.9248,3.9226,3.9187,3.9151,3.9142,3.9119,3.9086,3.9063,3.9043,3.9008,3.8998,3.8964,3.8926,3.8897,3.8846,3.8832,3.8789,3.8783,3.8802,3.8799,3.8784,3.8785,3.874,3.8732,3.8758,3.8758,3.8757,0,3.9266,3.9236,3.9206,3.9184,3.9151,3.9128,3.9095,3.9074,3.9044,3.9016,3.8998,3.8972,3.8938,3.8906,3.8884,3.8844,3.8835,3.882,3.8814,3.8821,3.8822,3.8804,3.8805,3.8802,3.8803,3.8803,3.8803,0,3.9297,3.9245,3.921,3.9194,3.915,3.9134,3.9114,3.908,3.9058,3.9025,3.901,3.8972,3.895,3.892,3.8892,3.8897,3.8842,3.8843,3.8827,3.8827,3.8813,3.8814,3.8785,3.8803,3.8803,3.8803,3.8803,0,3.9306,3.9277,3.9229,3.9193,3.9179,3.9155,3.9117,3.909,3.9054,3.904,3.9012,3.8995,3.8958,3.8962,3.891,3.8926,3.8905,3.8887,3.8886,3.8878,3.8883,3.8868,3.8845,3.884,3.8875,3.8876,3.8876,0,3.9348,3.9293,3.9273,3.9226,3.9197,3.918,3.9152,3.9121,3.9099,3.9069,3.9043,3.9007,3.9003,3.8987,3.8966,3.8936,3.8916,3.8938,3.8889,3.8888,3.89,3.8878,3.8881,3.8854,3.8883,3.8883,3.8882,0,3.9376,3.9324,3.9317,3.9298,3.9255,3.9229,3.9196,3.9157,3.9138,3.9104,3.9075,3.9022,3.9018,3.8991,3.8971,3.895,3.8929,3.8946,3.8944,3.8943,3.8884,3.8888,3.8884,3.892,3.8919,3.8918,3.8888,0,3.9395,3.9363,3.9344,3.93,3.9276,3.9244,3.9215,3.9193,3.9178,3.9155,3.911,3.9073,3.9028,3.9015,3.8998,3.896,3.8961,3.8955,3.8953,3.894,3.8929,3.8925,3.8973,3.8973,3.8973,3.8973,0,0,3.9438,3.9393,3.937,3.9338,3.9316,3.9297,3.9266,3.9241,3.9189,3.9173,3.9174,3.9094,3.9062,3.901,3.9004,3.8985,3.8975,3.8979,3.8947,3.8945,3.8942,3.8931,3.8927,3.8972,3.8972,3.8972,3.8972,0,3.9439,3.9414,3.9385,3.9359,3.932,3.9297,3.9291,3.9246,3.9229,3.9186,3.9166,3.9135,3.907,3.904,3.9016,3.8987,3.8971,3.8975,3.8971,3.8946,3.8944,3.8942,3.8931,3.8927,3.8971,3.8972,3.8972,0,3.946,3.9431,3.9413,3.9363,3.9335,3.9304,3.9298,3.9264,3.9239,3.9213,3.9169,3.9143,3.9099,3.9054,3.9032,3.903,3.897,3.8982,3.8982,3.8978,3.8953,3.895,3.8947,3.898,3.898,3.898,0,0,3.9464,3.9435,3.9392,3.936,3.9345,3.931,3.9289,3.9271,3.9235,3.922,3.9186,3.9148,3.911,3.9085,3.9047,3.9002,3.8989,3.8985,3.8984,3.8984,3.898,3.8954,3.8952,3.8981,3.8981,3.8981,0,0,3.9464,3.9416,3.9408,3.9367,3.9335,3.9288,3.9268,3.9256,3.9219,3.9219,3.9183,3.9171,3.9128,3.9102,3.9116,3.9045,3.9045,3.9041,3.9064,3.9063,3.9062,3.9068,3.91,0,0,0,0,0,3.9448,3.9422,3.9416,3.9405,3.9337,3.9292,3.9283,3.9256,3.9258,3.9243,3.9212,3.9197,3.9103,3.9114,3.9101,3.9085,3.899,3.8988,3.8987,3.9005,3.9005,3.9004,0,0,0,0,0,0,3.9444,3.943,3.9416,3.937,3.9354,3.9293,3.929,3.9282,3.9259,3.9257,3.9204,3.9196,3.9169,3.9119,3.9108,3.9093,3.9103,3.8989,3.8988,3.8987,3.9005,3.9005,3.9004,0,0,0,0,0,3.944,3.9429,3.9328,3.937,3.9356,3.9314,3.9291,3.9284,3.9265,3.9217,3.9208,3.9247,3.9169,3.9158,3.9112,3.9099,3.9111,3.9107,3.8988,3.8987,3.8986,3.9005,0,0,0,0,0,0,3.9437,3.942,3.9325,3.932,3.9378,3.9317,3.9307,3.9286,3.9226,3.9217,3.9258,3.9257,3.9169,3.916,3.9151,3.9103,3.9117,3.9113,3.911,3.8988,3.8987,3.8986,0,0,0,0,0,0,3.9426,3.9416,3.9322,3.9334,3.933,3.932,3.9311,3.9266,3.9225,3.9269,3.9267,3.9258,3.9181,3.9162,3.9155,3.9087,3.9122,3.9118,3.9115,3.9113,3.8987,3.8986,0,0,0,0,0,0,3.9421,3.9413,3.9335,3.9332,3.9328,3.9267,3.9279,3.9211,3.9239,3.9272,3.9241,3.9241,3.9183,3.9175,3.9157,3.9093,3.9088,3.9122,3.9119,3.9117,3.9116,0,0,0,0,0,0,0,3.9418,3.9483,3.9357,3.933,3.9327,3.9271,3.927,3.9268,3.924,3.924,3.9241,3.9241,3.9144,3.914,3.9136,3.9097,0,0,3.9122,3.912,0,0,0,0,0,0,0,0,3.9486,3.9483,3.9356,3.9355,3.9354,3.9271,3.927,3.9269,3.924,3.924,3.9241,3.9241,3.9143,3.914,3.9136,0,0,0,0,0,0,0,0,0,0,0,0,0,0,0,3.9356,3.9355,0,3.9271,3.927,3.9269,3.924,3.924,3.924,3.9241,3.9142,3.9139,3.9137,0,0,0,0,0,0,0,0,0,0,0,0,0,0,0,0,0,0,0,0,0,0,0,0,0,0,0,0,0,0,0,0,0,0,0,0,0,0,0,0,0,0,0,0,0,0,0,0,0,0,0,0,0,0,0,0,0,0,0,0,0,0,0,0,0,0,0,0,0]}]]]